Flag for USA

Past Weather in 31°41'22.8"N, 106°18'38.0"W, USA — Yesterday and Last 2 Weeks

Now
90 °F

Passing clouds.


Feels Like: 86 °F
Forecast: 104 / 75 °F
Wind: 3 mph from North

Location: El Paso International Airport

Current Time: Jun 3, 2020 at 11:49:50 pm

Latest Report: Jun 3, 2020 at 10:51 pm


Visibility: 10 mi

Pressure: 29.67 "Hg

Humidity: 19%

Dew Point: 42 °F

Location of 31°41'22.8"N, 106°18'38.0"WLocation

Past Weather in 31°41'22.8"N, 106°18'38.0"W — Graph

°F

31°41'22.8"N, 106°18'38.0"W Temperature Yesterday

Maximum temperature yesterday: 97 °F (at 3:51 pm)
Minimum temperature yesterday: 68 °F (at 5:51 am)
Average temperature yesterday: 84 °F

High & Low Weather Summary for the Past Weeks

 TemperatureHumidityPressure
High101 °F (Jun 3, 4:51 pm)56% (May 26, 5:51 am)30.05 "Hg (May 26, 5:51 am)
Low57 °F (May 22, 5:51 am)6% (May 21, 3:51 pm)29.53 "Hg (May 24, 6:51 pm)
Average81 °F20%29.76 "Hg
* Reported May 19 10:51 pm — Jun 3 10:51 pm, 31°41'22.8"N, 106°18'38.0"W. Weather by CustomWeather, © 2020

Note: Actual official high and low records may vary slightly from our data, if they occured in-between our weather recording intervals... More about our weather records

31°41'22.8"N, 106°18'38.0"W Weather History for the Previous 24 Hours

Scroll right to see more
 ConditionsComfort  
Time TempWeatherWind HumidityBarometerVisibility
10:51 pm
Wed, Jun 3
90 °FPassing clouds.3 mph19%29.67 "Hg10 mi
9:51 pm90 °FPassing clouds.3 mph17%29.67 "Hg10 mi
8:51 pm95 °FPassing clouds.No wind14%29.65 "Hg10 mi
7:51 pm98 °FScattered clouds.7 mph12%29.65 "Hg10 mi
6:51 pm100 °FPassing clouds.6 mph13%29.64 "Hg10 mi
5:51 pm101 °FPassing clouds.12 mph12%29.65 "Hg10 mi
4:51 pm101 °FPassing clouds.No wind13%29.67 "Hg10 mi
3:51 pm100 °FPassing clouds.5 mph13%29.69 "Hg10 mi
2:51 pm99 °FPassing clouds.8 mph16%29.71 "Hg10 mi
1:51 pm95 °FPassing clouds.3 mph21%29.74 "Hg10 mi
12:51 pm95 °FPassing clouds.3 mph22%29.77 "Hg10 mi
11:51 am93 °FPassing clouds.No wind23%29.80 "Hg10 mi
10:51 am88 °FSunny.No wind28%29.82 "Hg10 mi
9:51 am85 °FSunny.3 mph34%29.82 "Hg10 mi
8:51 am81 °FSunny.6 mph39%29.83 "Hg10 mi
7:51 am79 °FSunny.6 mph42%29.82 "Hg10 mi
6:51 am74 °FPassing clouds.5 mph43%29.80 "Hg10 mi
5:51 am75 °FPassing clouds.No wind40%29.78 "Hg10 mi
4:51 am77 °FClear.5 mph39%29.78 "Hg10 mi
3:51 am79 °FClear.12 mph31%29.78 "Hg10 mi
2:51 am80 °FPassing clouds.12 mph28%29.77 "Hg10 mi
1:51 am82 °FPassing clouds.15 mph23%29.78 "Hg10 mi
12:51 am82 °FPassing clouds.8 mph23%29.77 "Hg10 mi
11:51 pm
Tue, Jun 2
83 °FPassing clouds.8 mph23%29.78 "Hg10 mi
Weather by CustomWeather, © 2020

See weather overview

Advertising